MDT,Max TemperatureF,Mean TemperatureF,Min TemperatureF,Max Dew PointF,MeanDew PointF,Min DewpointF,Max Humidity, Mean Humidity, Min Humidity, Max Sea Level PressureIn, Mean Sea Level PressureIn, Min Sea Level PressureIn, Max VisibilityMiles, Mean VisibilityMiles, Min VisibilityMiles, Max Wind SpeedMPH, Mean Wind SpeedMPH, Max Gust SpeedMPH,PrecipitationIn, CloudCover, Events, WindDirDegrees
2013-7-1,95,80,64,58,55,43,73,45,17,30.17,30.10,30.04,10,10,10,10,6,,0.00,0,,301
2013-7-2,100,81,61,59,54,48,67,45,22,30.11,30.01,29.91,10,10,10,18,5,24,0.00,1,Rain-Thunderstorm,34
2013-7-3,95,79,63,57,49,40,73,45,17,30.04,29.90,29.81,10,10,10,26,9,32,0.00,0,,281
2013-7-4,91,77,62,49,46,42,52,35,18,29.90,29.82,29.70,10,10,10,17,7,25,0.00,0,,308
2013-7-5,84,71,58,51,43,35,69,46,23,29.82,29.78,29.71,10,10,10,26,6,37,T,1,,318
2013-7-6,84,69,53,50,44,36,83,52,21,29.96,29.87,29.79,10,10,10,15,6,20,0.00,0,,332
2013-7-7,89,73,56,52,47,40,77,48,19,29.96,29.87,29.77,10,10,10,18,6,23,0.00,1,Thunderstorm,322
2013-7-8,84,72,59,53,47,35,72,48,23,30.06,29.93,29.86,10,10,10,22,8,31,T,1,Rain-Thunderstorm,308
2013-7-9,89,70,50,46,38,22,71,40,9,30.17,30.10,30.02,10,10,10,17,6,24,0.00,0,,301
2013-7-10,95,75,54,46,38,29,55,33,10,30.07,29.94,29.77,10,10,10,26,4,37,0.00,0,,92
2013-7-11,90,74,57,52,41,33,72,43,14,29.92,29.78,29.73,10,10,9,32,8,40,0.02,2,Rain,252
2013-7-12,88,69,50,52,44,36,80,48,16,29.93,29.86,29.78,10,10,10,25,6,37,T,1,Rain,310
2013-7-13,84,70,56,44,39,30,62,39,15,30.12,30.00,29.88,10,10,10,22,9,35,0.00,0,,308
2013-7-14,88,72,55,47,39,27,59,35,11,30.17,30.07,29.94,10,10,10,15,6,20,0.00,0,Thunderstorm,272
2013-7-15,96,76,55,49,38,28,52,31,9,30.10,29.93,29.80,10,10,10,29,8,36,0.00,0,,328
2013-7-16,83,68,53,48,45,41,66,47,28,30.20,30.13,30.04,10,10,10,17,9,20,0.03,0,,314
2013-7-17,87,73,59,66,59,56,97,70,43,30.15,30.09,29.97,10,9,1,22,5,30,0.60,3,Rain-Thunderstorm,220
2013-7-18,90,73,56,59,48,27,100,55,10,30.20,30.12,30.03,10,8,0,20,6,25,0.00,0,Fog,313
2013-7-19,91,74,56,48,37,24,67,38,9,30.10,30.02,29.94,10,10,10,24,7,33,0.00,0,,304
2013-7-20,92,75,57,47,36,15,55,31,6,30.01,29.91,29.78,10,10,10,17,7,23,0.00,0,,272
2013-7-21,93,76,58,40,32,18,44,26,7,29.88,29.82,29.75,10,10,10,17,6,22,0.00,0,,301
2013-7-22,91,71,51,40,31,19,51,29,7,29.93,29.87,29.82,10,10,10,24,7,33,0.00,0,,300
2013-7-23,91,74,56,44,37,28,57,34,11,30.07,30.01,29.94,10,10,10,13,4,17,0.00,0,,43
2013-7-24,97,77,57,47,36,11,51,28,5,30.06,29.99,29.88,10,10,10,24,5,32,0.00,0,,295
2013-7-25,90,76,61,51,48,41,65,42,19,30.14,30.07,29.98,10,10,10,12,6,14,0.00,0,,300
2013-7-26,96,78,59,52,39,16,69,38,6,30.15,30.04,29.93,10,10,10,18,6,23,0.00,0,,308
2013-7-27,92,75,57,50,33,17,51,29,7,29.97,29.89,29.78,10,10,10,20,6,29,0.00,0,,281
2013-7-28,83,72,61,52,48,41,72,48,24,29.91,29.84,29.78,10,10,10,17,8,21,0.00,0,,310
2013-7-29,74,65,55,49,47,45,72,55,38,30.06,30.00,29.86,10,10,10,22,6,28,0.23,4,Rain-Thunderstorm,329
2013-7-30,78,67,55,50,47,43,77,54,31,30.20,30.13,30.06,10,10,10,13,6,16,T,0,,279
2013-7-31,90,71,52,48,42,31,71,42,12,30.24,30.12,30.00,10,10,10,16,5,23,0.00,0,,285